Location: ??
(35.4627°N, 139.3695°E)
Time: 05:33:21
(UTC+00:00)

NOAA 12 - Pass Details

Date: 25 November 2020
Orbit: 795 x 816 km, 98.5° (Epoch: 20 January)

Event Time Altitude Azimuth Distance (km) Brightness Sun altitude
Rises 20:51:42 0° 15° (NNE) 3,325 7.2 -7.8°
Reaches altitude 10° 20:54:04 10° 18° (NNE) 2,387 6.5 -7.3°
Maximum altitude 20:59:20 71° 102° (ESE) 846 4.5 -6.3°
Drops below altitude 10° 21:04:32 10° 186° (S) 2,360 6.8 -5.3°
Sets 21:06:51 0° 189° (S) 3,284 7.5 -4.9°
